Weather History for Antigo, WI

Change the Weather History Date:

Monday, January 27, 2014

  Actual Average Record
Temperature  
Mean Temperature -10 °F -  
Max Temperature -3 °F 18 °F 46 °F (2002)
Min Temperature -17 °F -2 °F -24 °F (1950)
Degree Days  
Heating Degree Days 75    
Moisture  
Dew Point -21 °F    
Average Humidity 65    
Maximum Humidity 78    
Minimum Humidity 53    
Precipitation  
Precipitation 0.04 in - - ()
Sea Level Pressure  
Sea Level Pressure 30.00 in    
Wind  
Wind Speed 15 mph (WNW)    
Max Wind Speed 21 mph    
Max Gust Speed 29 mph    
Visibility 8 miles    
Events Snow    
Averages and records for this station are not official NWS values.
T = Trace of Precipitation, MM = Missing Value Source: NWS Daily Summary

Daily Weather History Graph

Daily Weather History Graph

Search for Another Location

Airport:

Trip Planner

Search our weather history database for the weather conditions in past years. The results will help you decide how hot, cold, wet, or windy it might be!

Date:

Astronomy

Jan. 27, 2014 Rise Set
Actual Time 7:22 AM CST 4:56 PM CST
Civil Twilight 6:50 AM CST 5:28 PM CST
Nautical Twilight 6:14 AM CST 6:04 PM CST
Astronomical Twilight 5:39 AM CST 6:39 PM CST
Moon 4:05 AM CST (1/27) 1:40 PM CST (1/27)
Length of Visible Light 10h 38m
Length of Day
9h 34m
Waning Crescent, 14% of the Moon is Illuminated
Jan 27
Waning Crescent
Jan 30
New
Feb 6
First Quarter
Feb 14
Full
Feb 22
Last Quarter

Hourly Weather History & Observations

Time (CST) Temp. Windchill Dew Point Humidity Pressure Visibility Wind Dir Wind Speed Gust Speed Precip Events Conditions
12:15 AM -3.6 °F -24.7 °F -10.5 °F 72% 29.68 in 3.0 mi NW 16.1 mph 24.2 mph N/A   Haze
12:35 AM -4.2 °F -26.1 °F -11.2 °F 72% 29.69 in 2.5 mi NW 17.3 mph 28.8 mph N/A   Haze
12:55 AM -4.9 °F -26.3 °F -12.5 °F 70% 29.70 in 5.0 mi NW 16.1 mph 27.6 mph N/A   Haze
1:15 AM -5.8 °F -28.2 °F -13.4 °F 70% 29.72 in 7.0 mi NW 17.3 mph 20.7 mph N/A   Mostly Cloudy
1:35 AM -6.3 °F -26.7 °F -14.4 °F 68% 29.74 in 10.0 mi NW 13.8 mph 23.0 mph N/A   Clear
1:55 AM -6.9 °F -28.9 °F -15.0 °F 68% 29.74 in 7.0 mi NW 16.1 mph 21.9 mph N/A   Clear
2:15 AM -6.9 °F -28.9 °F -15.5 °F 66% 29.76 in 7.0 mi NW 16.1 mph 20.7 mph N/A   Clear
2:35 AM -7.6 °F -29.1 °F -16.8 °F 64% 29.78 in 10.0 mi NW 15.0 mph 21.9 mph N/A   Clear
2:55 AM -8.1 °F -29.0 °F -17.7 °F 63% 29.79 in 10.0 mi NW 13.8 mph 21.9 mph N/A   Clear
3:15 AM -8.5 °F -27.8 °F -17.3 °F 65% 29.80 in 10.0 mi WNW 11.5 mph - N/A   Clear
3:35 AM -8.7 °F -30.5 °F -16.6 °F 68% 29.81 in 10.0 mi WNW 15.0 mph 19.6 mph N/A   Clear
3:55 AM -9.2 °F -30.4 °F -16.2 °F 71% 29.82 in 10.0 mi WNW 13.8 mph - N/A   Clear
4:15 AM -9.6 °F -30.0 °F -16.6 °F 71% 29.83 in 10.0 mi WNW 12.7 mph - N/A   Clear
4:35 AM -10.3 °F -30.0 °F -16.6 °F 74% 29.85 in 10.0 mi WNW 11.5 mph - N/A   Scattered Clouds
4:55 AM -11.0 °F -27.6 °F -16.6 °F 76% 29.86 in 7.0 mi NW 8.1 mph - N/A   Mostly Cloudy
5:15 AM -10.7 °F -29.5 °F -17.0 °F 74% 29.87 in 5.0 mi WNW 10.4 mph - N/A   Haze
5:35 AM -10.3 °F -26.7 °F -15.3 °F 78% 29.87 in 2.5 mi WNW 8.1 mph - N/A Snow Light Snow
5:55 AM -10.3 °F -31.8 °F -15.9 °F 76% 29.88 in 3.0 mi WNW 13.8 mph - N/A   Haze
6:15 AM -11.2 °F -33.7 °F -17.3 °F 74% 29.90 in 4.0 mi West 15.0 mph 24.2 mph N/A   Haze
6:35 AM -12.8 °F -36.5 °F -18.9 °F 74% 29.91 in 4.0 mi WNW 16.1 mph 25.3 mph N/A   Mostly Cloudy
6:55 AM -13.2 °F -34.6 °F -19.3 °F 74% 29.93 in 3.0 mi WNW 12.7 mph 25.3 mph N/A   Haze
7:15 AM -14.6 °F -37.3 °F -21.1 °F 73% 29.94 in 5.0 mi WNW 13.8 mph 23.0 mph N/A   Haze
7:35 AM -15.2 °F -37.9 °F -22.0 °F 71% 29.95 in 10.0 mi WNW 13.8 mph - N/A   Clear
7:55 AM -15.3 °F -39.8 °F -22.2 °F 71% 29.96 in 7.0 mi WNW 16.1 mph 23.0 mph N/A   Clear
8:15 AM -15.3 °F -39.0 °F -22.9 °F 69% 29.97 in 5.0 mi West 15.0 mph 23.0 mph N/A   Haze
8:35 AM -15.7 °F -42.3 °F -23.4 °F 68% 29.98 in 4.0 mi WNW 19.6 mph 25.3 mph N/A   Haze
8:55 AM -16.1 °F -42.8 °F -23.8 °F 68% 30.00 in 2.0 mi WNW 19.6 mph 27.6 mph N/A   Haze
9:15 AM -16.1 °F -41.4 °F -24.0 °F 67% 29.99 in 4.0 mi WNW 17.3 mph 25.3 mph N/A   Haze
9:35 AM -15.7 °F -42.3 °F -24.0 °F 66% 30.01 in 3.0 mi WNW 19.6 mph 25.3 mph N/A   Haze
9:55 AM -15.3 °F -40.5 °F -24.2 °F 64% 30.02 in 4.0 mi NW 17.3 mph 24.2 mph N/A   Haze
10:15 AM -15.0 °F -42.0 °F -24.5 °F 62% 30.03 in 4.0 mi WNW 20.7 mph 25.3 mph N/A   Haze
10:35 AM -14.8 °F -39.1 °F -24.7 °F 61% 30.04 in 7.0 mi WNW 16.1 mph 20.7 mph N/A   Clear
10:55 AM -14.1 °F -37.4 °F -23.8 °F 62% 30.05 in 10.0 mi WNW 15.0 mph 20.7 mph N/A   Clear
11:15 AM -14.1 °F -38.2 °F -24.2 °F 61% 30.05 in 7.0 mi West 16.1 mph 21.9 mph N/A   Clear
11:35 AM -13.4 °F -38.0 °F -24.0 °F 59% 30.05 in 10.0 mi WNW 17.3 mph - N/A   Clear
11:55 AM -13.0 °F -37.5 °F -23.8 °F 59% 30.05 in 7.0 mi WNW 17.3 mph 23.0 mph N/A   Clear
12:15 PM -12.8 °F -36.5 °F -24.0 °F 58% 30.05 in 10.0 mi WNW 16.1 mph 21.9 mph N/A   Clear
12:35 PM -12.1 °F -34.1 °F -23.4 °F 57% 30.05 in 10.0 mi WNW 13.8 mph - N/A   Clear
12:55 PM -11.4 °F -35.4 °F -23.8 °F 54% 30.05 in 10.0 mi West 17.3 mph 23.0 mph N/A   Clear
1:15 PM -10.7 °F -34.5 °F -23.1 °F 54% 30.05 in 10.0 mi West 17.3 mph 21.9 mph N/A   Clear
1:35 PM -9.9 °F -33.5 °F -22.4 °F 54% 30.05 in 10.0 mi WNW 17.3 mph 21.9 mph N/A   Clear
1:55 PM -9.4 °F -32.8 °F -21.8 °F 55% 30.06 in 7.0 mi West 17.3 mph - N/A   Clear
2:15 PM -8.9 °F -32.1 °F -21.3 °F 55% 30.06 in 10.0 mi West 17.3 mph - N/A   Clear
2:35 PM -8.7 °F -31.9 °F -21.3 °F 54% 30.06 in 7.0 mi WNW 17.3 mph 25.3 mph N/A   Clear
2:55 PM -8.5 °F -31.7 °F -20.6 °F 56% 30.07 in 10.0 mi WNW 17.3 mph 23.0 mph N/A   Clear
3:15 PM -7.8 °F -29.3 °F -20.7 °F 53% 30.07 in 10.0 mi West 15.0 mph - N/A   Clear
3:35 PM -7.6 °F -31.1 °F -20.6 °F 53% 30.08 in 10.0 mi West 18.4 mph 21.9 mph N/A   Clear
3:55 PM -8.1 °F -30.5 °F -20.2 °F 56% 30.09 in 7.0 mi WNW 16.1 mph - 0.01 in   Clear
4:15 PM -8.3 °F -31.4 °F -20.2 °F 56% 30.09 in 10.0 mi WNW 17.3 mph 27.6 mph 0.03 in   Clear
4:35 PM -8.7 °F -33.1 °F -20.4 °F 57% 30.09 in 10.0 mi WNW 19.6 mph 25.3 mph 0.03 in   Clear
4:55 PM -8.9 °F -30.7 °F -20.7 °F 56% 30.10 in 10.0 mi WNW 15.0 mph - 0.03 in   Clear
5:15 PM -9.4 °F -31.4 °F -20.7 °F 58% 30.10 in 10.0 mi West 15.0 mph 20.7 mph N/A   Clear
5:35 PM -10.5 °F -29.2 °F -21.6 °F 58% 30.11 in 10.0 mi West 10.4 mph - N/A   Clear
5:55 PM -11.2 °F -32.9 °F -22.0 °F 59% 30.11 in 10.0 mi West 13.8 mph - N/A   Clear
6:15 PM -11.7 °F -31.8 °F -22.2 °F 60% 30.12 in 10.0 mi West 11.5 mph - N/A   Clear
6:35 PM -12.6 °F -33.9 °F -22.9 °F 60% 30.13 in 10.0 mi West 12.7 mph 18.4 mph N/A   Clear
6:55 PM -13.2 °F -36.2 °F -22.9 °F 62% 30.13 in 10.0 mi West 15.0 mph - N/A   Clear
7:15 PM -13.4 °F -34.8 °F -22.9 °F 62% 30.14 in 10.0 mi West 12.7 mph - N/A   Clear
7:35 PM -13.9 °F -34.5 °F -23.1 °F 63% 30.14 in 10.0 mi West 11.5 mph - N/A   Clear
7:55 PM -14.4 °F -37.0 °F -23.3 °F 65% 30.14 in 10.0 mi West 13.8 mph - N/A   Clear
8:15 PM -14.8 °F -36.6 °F -23.6 °F 65% 30.14 in 10.0 mi West 12.7 mph - N/A   Clear
8:35 PM -15.0 °F -35.9 °F -23.4 °F 66% 30.14 in 10.0 mi West 11.5 mph - N/A   Clear
8:55 PM -15.3 °F -36.3 °F -23.8 °F 66% 30.15 in 10.0 mi West 11.5 mph - N/A   Clear
9:15 PM -16.2 °F -37.5 °F -24.3 °F 67% 30.15 in 10.0 mi West 11.5 mph - N/A   Clear
9:35 PM -16.8 °F -38.1 °F -24.9 °F 67% 30.15 in 10.0 mi West 11.5 mph - N/A   Clear
9:55 PM -17.1 °F -38.6 °F -24.9 °F 68% 30.15 in 10.0 mi West 11.5 mph - N/A   Clear
10:15 PM -17.1 °F -39.6 °F -24.9 °F 68% 30.15 in 10.0 mi West 12.7 mph - N/A   Clear
10:35 PM -17.5 °F -38.0 °F -24.9 °F 69% 30.15 in 10.0 mi West 10.4 mph - N/A   Clear
10:55 PM -17.3 °F -38.8 °F -24.7 °F 69% 30.15 in 10.0 mi West 11.5 mph - N/A   Clear
11:15 PM -17.5 °F -39.0 °F -24.9 °F 69% 30.14 in 10.0 mi West 11.5 mph - N/A   Clear
11:35 PM -17.1 °F -39.6 °F -24.9 °F 68% 30.14 in 10.0 mi West 12.7 mph - N/A   Clear
11:55 PM -17.1 °F -39.6 °F -24.9 °F 68% 30.14 in 10.0 mi West 12.7 mph 17.3 mph N/A   Clear